| time (UTC) | temp F | wind direction | speed knots | gust knots | rain 1hr in | rain 24hr in | rain mn in | humidity % | barometer mb |
| 20260506025528 | 51 | 79 | 6.1 | 15.6 | 0.00 | 0.00 | 0.00 | 73 | 1012.4 |
| 20260506025031 | 51 | 354 | 6.1 | 15.6 | 0.00 | 0.00 | 0.00 | 73 | 1012.5 |
| 20260506024545 | 51 | 23 | 2.6 | 13.9 | 0.00 | 0.00 | 0.00 | 74 | 1012.1 |
| 20260506024028 | 51 | 74 | 6.1 | 13.9 | 0.00 | 0.00 | 0.00 | 74 | 1012.1 |
| 20260506023527 | 51 | 49 | 6.1 | 13.0 | 0.00 | 0.00 | 0.00 | 74 | 1012.0 |
| 20260506023055 | 51 | 80 | 7.0 | 13.0 | 0.00 | 0.00 | 0.00 | 74 | 1011.8 |
| 20260506022528 | 51 | 315 | 5.2 | 13.0 | 0.00 | 0.00 | 0.00 | 74 | 1011.7 |
| 20260506022029 | 51 | 9 | 3.5 | 9.6 | 0.00 | 0.00 | 0.00 | 74 | 1011.6 |
| 20260506021552 | 51 | 17 | 4.3 | 10.4 | 0.00 | 0.00 | 0.00 | 74 | 1011.6 |
| 20260506021029 | 51 | 41 | 1.7 | 10.4 | 0.00 | 0.00 | 0.00 | 74 | 1011.5 |
| 20260506020528 | 51 | 120 | 3.5 | 13.0 | 0.00 | 0.00 | 0.00 | 74 | 1011.4 |
| 20260506020039 | 51 | 58 | 7.0 | 13.0 | 0.00 | 0.00 | 0.00 | 74 | 1011.0 |
| 20260506015529 | 51 | 46 | 5.2 | 11.3 | 0.00 | 0.00 | 0.00 | 74 | 1011.0 |
| 20260506015031 | 51 | 77 | 3.5 | 11.3 | 0.00 | 0.00 | 0.00 | 74 | 1011.0 |
| 20260506014540 | 51 | 46 | 3.5 | 11.3 | 0.00 | 0.00 | 0.00 | 74 | 1010.6 |
| 20260506014028 | 51 | 84 | 2.6 | 10.4 | 0.00 | 0.00 | 0.00 | 74 | 1010.7 |
| 20260506013528 | 51 | 26 | 4.3 | 10.4 | 0.00 | 0.00 | 0.00 | 74 | 1010.7 |
| 20260506013044 | 51 | 46 | 3.5 | 15.6 | 0.00 | 0.00 | 0.00 | 74 | 1010.5 |
| 20260506012528 | 51 | 109 | 5.2 | 15.6 | 0.00 | 0.00 | 0.00 | 74 | 1010.3 |
| 20260506012028 | 51 | 20 | 7.0 | 13.9 | 0.00 | 0.00 | 0.00 | 74 | 1010.1 |
| 20260506011540 | 52 | 30 | 3.5 | 11.3 | 0.00 | 0.00 | 0.00 | 74 | 1010.1 |
| 20260506011029 | 52 | 28 | 4.3 | 11.3 | 0.00 | 0.00 | 0.00 | 74 | 1010.2 |
| 20260506010529 | 52 | 86 | 4.3 | 13.0 | 0.00 | 0.00 | 0.00 | 74 | 1010.1 |
| 20260506010054 | 52 | 91 | 5.2 | 13.0 | 0.00 | 0.00 | 0.00 | 73 | 1010.1 |
| 20260506005528 | 52 | 305 | 3.5 | 9.6 | 0.00 | 0.00 | 0.00 | 73 | 1010.0 |
| 20260506005028 | 52 | 35 | 4.3 | 9.6 | 0.00 | 0.00 | 0.00 | 73 | 1009.9 |
| 20260506004547 | 52 | 84 | 4.3 | 15.6 | 0.00 | 0.00 | 0.00 | 73 | 1010.1 |
| 20260506004028 | 52 | 27 | 7.8 | 15.6 | 0.00 | 0.00 | 0.00 | 73 | 1010.0 |
| 20260506003529 | 52 | 60 | 6.1 | 13.9 | 0.00 | 0.00 | 0.00 | 72 | 1010.0 |
| 20260506003041 | 52 | 54 | 3.5 | 12.2 | 0.00 | 0.00 | 0.00 | 72 | 1009.9 |
| 20260506002528 | 52 | 91 | 5.2 | 12.2 | 0.00 | 0.00 | 0.00 | 71 | 1010.2 |
| 20260506002028 | 52 | 80 | 6.1 | 17.4 | 0.00 | 0.00 | 0.00 | 71 | 1010.1 |
| 20260506001547 | 52 | 72 | 4.3 | 17.4 | 0.00 | 0.00 | 0.00 | 71 | 1009.9 |
| 20260506001028 | 52 | 42 | 6.1 | 20.9 | 0.00 | 0.00 | 0.00 | 70 | 1009.3 |
| 20260506000528 | 53 | 47 | 7.0 | 20.9 | 0.00 | 0.00 | 0.00 | 70 | 1009.5 |
| 20260506000044 | 53 | 111 | 4.3 | 11.3 | 0.00 | 0.00 | 0.00 | 70 | 1009.7 |
| 20260505235529 | 53 | 88 | 6.1 | 12.2 | 0.00 | 0.00 | 0.00 | 69 | 1009.5 |
| 20260505235028 | 53 | 83 | 5.2 | 12.2 | 0.00 | 0.00 | 0.00 | 69 | 1009.7 |
| 20260505234605 | 53 | 73 | 4.3 | 13.0 | 0.00 | 0.00 | 0.00 | 70 | 1009.8 |
| 20260505234032 | 53 | 49 | 5.2 | 16.5 | 0.00 | 0.00 | 0.00 | 70 | 1009.7 |
| 20260505233528 | 53 | 34 | 6.1 | 16.5 | 0.00 | 0.00 | 0.00 | 70 | 1009.6 |
| 20260505233042 | 53 | 31 | 7.8 | 16.5 | 0.00 | 0.00 | 0.00 | 70 | 1009.7 |
| 20260505232530 | 53 | 110 | 7.8 | 13.9 | 0.00 | 0.00 | 0.00 | 69 | 1009.4 |
| 20260505232029 | 53 | 337 | 6.1 | 18.2 | 0.00 | 0.00 | 0.00 | 69 | 1009.5 |
| 20260505231542 | 53 | 6 | 6.1 | 18.2 | 0.00 | 0.00 | 0.00 | 69 | 1009.3 |
| 20260505231028 | 53 | 19 | 7.0 | 18.2 | 0.00 | 0.00 | 0.00 | 69 | 1009.5 |
| 20260505230529 | 53 | 340 | 7.0 | 14.8 | 0.00 | 0.00 | 0.00 | 69 | 1009.4 |
| 20260505230045 | 54 | 86 | 5.2 | 13.9 | 0.00 | 0.00 | 0.00 | 69 | 1009.3 |
| 20260505225528 | 54 | 19 | 5.2 | 14.8 | 0.00 | 0.00 | 0.00 | 69 | 1009.0 |
| 20260505225029 | 54 | 32 | 7.0 | 14.8 | 0.00 | 0.00 | 0.00 | 69 | 1009.0 |
| 20260505224542 | 54 | 32 | 6.1 | 11.3 | 0.00 | 0.00 | 0.00 | 69 | 1008.9 |
| 20260505224030 | 54 | 1 | 7.0 | 13.9 | 0.00 | 0.00 | 0.00 | 68 | 1008.4 |
| 20260505223529 | 54 | 323 | 7.0 | 13.9 | 0.00 | 0.00 | 0.00 | 68 | 1008.7 |
| 20260505223040 | 54 | 15 | 6.1 | 13.0 | 0.00 | 0.00 | 0.00 | 68 | 1008.7 |
| 20260505222533 | 54 | 37 | 5.2 | 12.2 | 0.00 | 0.00 | 0.00 | 68 | 1008.7 |
| 20260505222029 | 54 | 42 | 6.1 | 12.2 | 0.00 | 0.00 | 0.00 | 68 | 1008.3 |
| 20260505221542 | 55 | 95 | 4.3 | 12.2 | 0.00 | 0.00 | 0.00 | 68 | 1008.2 |
| 20260505221031 | 55 | 240 | 4.3 | 13.9 | 0.00 | 0.00 | 0.00 | 69 | 1008.1 |
| 20260505220527 | 54 | 11 | 7.8 | 16.5 | 0.00 | 0.00 | 0.00 | 69 | 1007.9 |
| 20260505220045 | 54 | 79 | 7.8 | 16.5 | 0.00 | 0.00 | 0.00 | 69 | 1008.1 |
| 20260505215529 | 55 | 84 | 5.2 | 13.0 | 0.00 | 0.00 | 0.00 | 70 | 1008.2 |
| 20260505215029 | 55 | 34 | 7.0 | 13.0 | 0.00 | 0.00 | 0.00 | 70 | 1008.1 |
| 20260505214559 | 55 | 39 | 5.2 | 10.4 | 0.00 | 0.00 | 0.00 | 70 | 1008.3 |
| 20260505214028 | 55 | 359 | 4.3 | 10.4 | 0.00 | 0.00 | 0.00 | 70 | 1008.2 |
| 20260505213528 | 55 | 37 | 7.0 | 10.4 | 0.00 | 0.00 | 0.00 | 70 | 1008.0 |
| 20260505213057 | 55 | 19 | 2.6 | 8.7 | 0.00 | 0.00 | 0.00 | 71 | 1008.3 |
| 20260505212531 | 55 | 80 | 3.5 | 14.8 | 0.00 | 0.00 | 0.00 | 71 | 1008.5 |
| 20260505212029 | 55 | 350 | 7.0 | 14.8 | 0.00 | 0.00 | 0.00 | 71 | 1008.3 |
| 20260505211539 | 55 | 8 | 3.5 | 12.2 | 0.00 | 0.00 | 0.00 | 72 | 1008.3 |
| 20260505211033 | 55 | 354 | 4.3 | 12.2 | 0.00 | 0.00 | 0.00 | 72 | 1008.2 |
| 20260505210526 | 55 | 358 | 3.5 | 9.6 | 0.00 | 0.00 | 0.00 | 72 | 1007.9 |
| 20260505210040 | 55 | 349 | 5.2 | 12.2 | 0.00 | 0.00 | 0.00 | 72 | 1007.8 |
| 20260505205530 | 55 | 55 | 5.2 | 14.8 | 0.00 | 0.00 | 0.00 | 73 | 1007.5 |
| 20260505205029 | 55 | 4 | 6.1 | 14.8 | 0.00 | 0.00 | 0.00 | 73 | 1007.6 |
| 20260505204553 | 55 | 358 | 3.5 | 10.4 | 0.00 | 0.00 | 0.00 | 74 | 1007.7 |
| 20260505204028 | 55 | 104 | 5.2 | 13.0 | 0.00 | 0.00 | 0.00 | 74 | 1007.9 |
| 20260505203528 | 55 | 81 | 5.2 | 16.5 | 0.00 | 0.00 | 0.00 | 74 | 1008.1 |
| 20260505203047 | 55 | 30 | 7.0 | 16.5 | 0.00 | 0.00 | 0.00 | 74 | 1008.2 |
| 20260505202529 | 55 | 23 | 2.6 | 13.9 | 0.00 | 0.00 | 0.00 | 75 | 1008.2 |
| 20260505202030 | 55 | 82 | 6.1 | 13.9 | 0.00 | 0.00 | 0.00 | 75 | 1007.9 |
| 20260505201539 | 56 | 70 | 6.1 | 13.0 | 0.00 | 0.00 | 0.00 | 74 | 1007.7 |
| 20260505201028 | 56 | 319 | 5.2 | 16.5 | 0.00 | 0.00 | 0.00 | 74 | 1007.5 |
| 20260505200529 | 56 | 351 | 6.1 | 16.5 | 0.00 | 0.00 | 0.00 | 74 | 1007.6 |
| 20260505200058 | 56 | 65 | 7.8 | 16.5 | 0.00 | 0.00 | 0.00 | 74 | 1007.6 |
| 20260505195529 | 56 | 352 | 7.0 | 14.8 | 0.00 | 0.00 | 0.00 | 74 | 1007.7 |
| 20260505195029 | 56 | 56 | 7.0 | 13.0 | 0.00 | 0.00 | 0.00 | 73 | 1007.6 |
| 20260505194545 | 56 | 110 | 3.5 | 11.3 | 0.00 | 0.00 | 0.00 | 75 | 1007.6 |
| 20260505194030 | 56 | 17 | 7.0 | 11.3 | 0.00 | 0.00 | 0.00 | 75 | 1007.6 |
| 20260505193526 | 56 | 27 | 5.2 | 11.3 | 0.00 | 0.00 | 0.00 | 75 | 1007.6 |
| 20260505193048 | 56 | 349 | 1.7 | 12.2 | 0.00 | 0.00 | 0.00 | 77 | 1007.7 |
| 20260505192532 | 56 | 109 | 4.3 | 14.8 | 0.00 | 0.00 | 0.00 | 77 | 1007.7 |
| 20260505192028 | 56 | 20 | 5.2 | 18.2 | 0.00 | 0.00 | 0.00 | 77 | 1007.4 |
| 20260505191542 | 56 | 55 | 6.1 | 18.2 | 0.00 | 0.00 | 0.00 | 77 | 1007.3 |
| 20260505191029 | 56 | 94 | 7.0 | 13.0 | 0.00 | 0.00 | 0.00 | 77 | 1007.3 |
| 20260505190529 | 56 | 43 | 7.8 | 13.9 | 0.00 | 0.00 | 0.00 | 77 | 1007.2 |
| 20260505190042 | 56 | 39 | 6.1 | 13.9 | 0.00 | 0.00 | 0.00 | 78 | 1007.1 |
| 20260505185528 | 56 | 118 | 7.8 | 13.0 | 0.00 | 0.00 | 0.00 | 78 | 1007.1 |
| 20260505185028 | 56 | 46 | 6.1 | 16.5 | 0.00 | 0.00 | 0.00 | 78 | 1006.9 |
| 20260505184538 | 56 | 168 | 7.0 | 16.5 | 0.00 | 0.00 | 0.00 | 79 | 1006.9 |
| 20260505184029 | 56 | 59 | 7.0 | 16.5 | 0.00 | 0.00 | 0.00 | 79 | 1007.0 |
| 20260505183528 | 56 | 279 | 5.2 | 12.2 | 0.00 | 0.00 | 0.00 | 79 | 1006.9 |
| 20260505183044 | 56 | 24 | 5.2 | 11.3 | 0.00 | 0.00 | 0.00 | 80 | 1006.9 |
| 20260505182528 | 56 | 31 | 3.5 | 13.0 | 0.00 | 0.00 | 0.00 | 80 | 1006.8 |
| 20260505182028 | 56 | 70 | 4.3 | 13.0 | 0.00 | 0.00 | 0.00 | 80 | 1006.9 |
| 20260505181543 | 56 | 34 | 4.3 | 12.2 | 0.00 | 0.00 | 0.00 | 80 | 1006.9 |
| 20260505181029 | 56 | 348 | 5.2 | 11.3 | 0.00 | 0.00 | 0.00 | 80 | 1007.2 |
| 20260505180529 | 56 | 47 | 4.3 | 11.3 | 0.00 | 0.00 | 0.00 | 81 | 1007.1 |
| 20260505180103 | 56 | 16 | 4.3 | 11.3 | 0.00 | 0.00 | 0.00 | 81 | 1006.9 |
| 20260505175530 | 57 | 10 | 4.3 | 11.3 | 0.00 | 0.00 | 0.00 | 81 | 1006.8 |
| 20260505175032 | 57 | 39 | 5.2 | 13.9 | 0.00 | 0.00 | 0.00 | 81 | 1006.4 |
| 20260505174558 | 57 | 11 | 5.2 | 13.9 | 0.00 | 0.00 | 0.00 | 81 | 1006.2 |
| 20260505174029 | 57 | 39 | 7.0 | 15.6 | 0.00 | 0.00 | 0.00 | 81 | 1005.7 |
| 20260505173531 | 57 | 306 | 5.2 | 15.6 | 0.00 | 0.00 | 0.00 | 81 | 1006.0 |
| 20260505173045 | 57 | 39 | 5.2 | 15.6 | 0.00 | 0.00 | 0.00 | 81 | 1005.8 |
| 20260505172528 | 57 | 91 | 6.1 | 13.9 | 0.00 | 0.00 | 0.00 | 81 | 1006.0 |
| 20260505172028 | 57 | 358 | 3.5 | 14.8 | 0.00 | 0.00 | 0.00 | 82 | 1005.8 |
| 20260505171546 | 57 | 16 | 7.8 | 14.8 | 0.00 | 0.00 | 0.00 | 81 | 1005.8 |
| 20260505171029 | 57 | 26 | 7.0 | 16.5 | 0.00 | 0.00 | 0.00 | 81 | 1005.9 |
| 20260505170529 | 57 | 8 | 5.2 | 16.5 | 0.00 | 0.00 | 0.00 | 82 | 1006.1 |
| 20260505170048 | 57 | 74 | 6.1 | 13.9 | 0.00 | 0.00 | 0.00 | 82 | 1005.8 |
| 20260505165528 | 57 | 72 | 5.2 | 13.9 | 0.00 | 0.00 | 0.00 | 81 | 1005.2 |
| 20260505165028 | 58 | 45 | 4.3 | 13.0 | 0.00 | 0.00 | 0.00 | 81 | 1005.4 |
| 20260505164539 | 58 | 98 | 4.3 | 13.0 | 0.00 | 0.00 | 0.00 | 82 | 1005.3 |
| 20260505164028 | 58 | 91 | 7.0 | 19.1 | 0.00 | 0.00 | 0.00 | 81 | 1005.2 |
| 20260505163529 | 58 | 96 | 7.0 | 19.1 | 0.00 | 0.00 | 0.00 | 81 | 1005.0 |
| 20260505163042 | 58 | 27 | 7.8 | 16.5 | 0.00 | 0.00 | 0.00 | 81 | 1005.1 |
| 20260505162528 | 59 | 6 | 4.3 | 12.2 | 0.00 | 0.00 | 0.00 | 81 | 1004.9 |
| 20260505162028 | 59 | 4 | 6.1 | 12.2 | 0.00 | 0.00 | 0.00 | 81 | 1004.8 |
| 20260505161541 | 60 | 74 | 5.2 | 13.9 | 0.00 | 0.00 | 0.00 | 81 | 1005.0 |
| 20260505161032 | 60 | 77 | 4.3 | 13.9 | 0.00 | 0.00 | 0.00 | 81 | 1004.8 |
| 20260505160527 | 60 | 25 | 6.1 | 13.0 | 0.00 | 0.00 | 0.00 | 81 | 1004.5 |
| 20260505153045 | 65 | 37 | 7.0 | 15.6 | 0.00 | 0.00 | 0.00 | 76 | 1004.3 |
| 20260505152530 | 68 | 88 | 5.2 | 11.3 | 0.00 | 0.00 | 0.00 | 77 | 1004.0 |
| 20260505152027 | 69 | 356 | 4.3 | 11.3 | 0.00 | 0.00 | 0.00 | 77 | 1003.8 |
| 20260505151543 | 70 | 23 | 5.2 | 11.3 | 0.00 | 0.00 | 0.00 | 75 | 1003.8 |
| 20260505151028 | 71 | 43 | 2.6 | 7.0 | 0.00 | 0.00 | 0.00 | 75 | 1003.6 |
| 20260505150531 | 71 | 335 | 1.7 | 3.5 | 0.00 | 0.00 | 0.00 | 75 | 1003.5 |
| 20260505140528 | 69 | 109 | 3.5 | 7.8 | 0.00 | 0.00 | 0.00 | 78 | 1002.9 |
| 20260505125031 | 67 | 293 | 0.0 | 6.1 | 0.00 | 0.00 | 0.00 | 79 | 1003.1 |
| 20260505124546 | 67 | 110 | 1.7 | 6.1 | 0.00 | 0.00 | 0.00 | 79 | 1003.2 |
| 20260505124030 | 67 | 105 | 0.9 | 6.1 | 0.00 | 0.00 | 0.00 | 78 | 1003.2 |
| 20260505123530 | 67 | 185 | 0.9 | 6.1 | 0.00 | 0.00 | 0.00 | 79 | 1003.2 |
| 20260505123047 | 67 | 0 | 0.9 | 7.8 | 0.00 | 0.00 | 0.00 | 79 | 1003.0 |
| 20260505122531 | 67 | 82 | 1.7 | 7.8 | 0.00 | 0.00 | 0.00 | 79 | 1003.1 |
| 20260505122035 | 67 | 223 | 1.7 | 9.6 | 0.00 | 0.00 | 0.00 | 79 | 1002.9 |
| 20260505121540 | 67 | 204 | 2.6 | 11.3 | 0.00 | 0.00 | 0.00 | 79 | 1002.8 |
| 20260505121031 | 67 | 59 | 3.5 | 11.3 | 0.00 | 0.00 | 0.00 | 79 | 1002.9 |
| 20260505120529 | 67 | 44 | 5.2 | 11.3 | 0.00 | 0.00 | 0.00 | 79 | 1002.9 |
| 20260505120043 | 67 | 101 | 4.3 | 11.3 | 0.00 | 0.00 | 0.00 | 79 | 1002.8 |
| 20260505115528 | 67 | 85 | 3.5 | 15.6 | 0.00 | 0.00 | 0.00 | 79 | 1002.8 |
| 20260505115033 | 67 | 65 | 3.5 | 15.6 | 0.00 | 0.00 | 0.00 | 79 | 1002.7 |
| 20260505114544 | 67 | 66 | 6.1 | 11.3 | 0.00 | 0.00 | 0.00 | 79 | 1002.7 |
| 20260505114030 | 67 | 100 | 6.1 | 10.4 | 0.00 | 0.00 | 0.00 | 79 | 1002.7 |
| 20260505113530 | 67 | 81 | 4.3 | 10.4 | 0.00 | 0.00 | 0.00 | 79 | 1002.6 |
| 20260505113042 | 67 | 79 | 4.3 | 8.7 | 0.00 | 0.00 | 0.00 | 79 | 1002.6 |
| 20260505112531 | 67 | 51 | 2.6 | 8.7 | 0.00 | 0.00 | 0.00 | 79 | 1002.6 |
| 20260505112029 | 67 | 77 | 0.9 | 6.1 | 0.00 | 0.00 | 0.00 | 79 | 1002.5 |
| 20260505111543 | 67 | 127 | 1.7 | 7.8 | 0.00 | 0.00 | 0.00 | 79 | 1002.5 |
| 20260505111030 | 67 | 65 | 2.6 | 9.6 | 0.00 | 0.00 | 0.00 | 79 | 1002.4 |
| 20260505110530 | 67 | 57 | 1.7 | 9.6 | 0.00 | 0.00 | 0.00 | 79 | 1002.4 |
| 20260505102028 | 67 | 45 | 4.3 | 10.4 | 0.00 | 0.00 | 0.00 | 78 | 1001.7 |
| 20260505101542 | 67 | 94 | 1.7 | 7.8 | 0.00 | 0.00 | 0.00 | 79 | 1001.7 |
| 20260505101028 | 67 | 65 | 2.6 | 7.0 | 0.00 | 0.00 | 0.00 | 78 | 1001.7 |
| 20260505100528 | 67 | 81 | 0.9 | 11.3 | 0.00 | 0.00 | 0.00 | 78 | 1001.6 |
| 20260505100047 | 67 | 131 | 3.5 | 11.3 | 0.00 | 0.00 | 0.00 | 78 | 1001.6 |
| 20260505095527 | 67 | 86 | 5.2 | 9.6 | 0.00 | 0.00 | 0.00 | 78 | 1001.5 |
| 20260505095031 | 67 | 70 | 1.7 | 8.7 | 0.00 | 0.00 | 0.00 | 78 | 1001.5 |
| 20260505094537 | 67 | 108 | 2.6 | 8.7 | 0.00 | 0.00 | 0.00 | 77 | 1001.5 |
| 20260505094027 | 68 | 79 | 0.9 | 9.6 | 0.00 | 0.00 | 0.00 | 77 | 1001.5 |
| 20260505093527 | 68 | 98 | 3.5 | 9.6 | 0.00 | 0.00 | 0.00 | 77 | 1001.5 |
| 20260505093040 | 68 | 108 | 2.6 | 8.7 | 0.00 | 0.00 | 0.00 | 76 | 1001.6 |
| 20260505092526 | 68 | 356 | 1.7 | 6.1 | 0.00 | 0.00 | 0.00 | 76 | 1001.6 |
| 20260505092028 | 68 | 70 | 0.9 | 6.1 | 0.00 | 0.00 | 0.00 | 75 | 1001.5 |
| 20260505091548 | 69 | 112 | 0.9 | 9.6 | 0.00 | 0.00 | 0.00 | 75 | 1001.5 |
| 20260505091025 | 69 | 85 | 1.7 | 9.6 | 0.00 | 0.00 | 0.00 | 74 | 1001.6 |
| 20260505090528 | 69 | 84 | 1.7 | 6.1 | 0.00 | 0.00 | 0.00 | 74 | 1001.7 |
| 20260505090043 | 69 | 0 | 2.6 | 6.1 | 0.00 | 0.00 | 0.00 | 74 | 1001.7 |
| 20260505085528 | 69 | 75 | 0.9 | 6.1 | 0.00 | 0.00 | 0.00 | 74 | 1001.7 |
| 20260505085028 | 69 | 340 | 0.9 | 6.1 | 0.00 | 0.00 | 0.00 | 74 | 1001.7 |
| 20260505084544 | 69 | 87 | 0.9 | 7.0 | 0.00 | 0.00 | 0.00 | 74 | 1001.7 |
| 20260505084027 | 69 | 309 | 0.9 | 7.0 | 0.00 | 0.00 | 0.00 | 74 | 1001.7 |
| 20260505083528 | 69 | 46 | 1.7 | 7.0 | 0.00 | 0.00 | 0.00 | 74 | 1001.7 |
| 20260505083041 | 69 | 60 | 1.7 | 7.0 | 0.00 | 0.00 | 0.00 | 74 | 1001.7 |
| 20260505082527 | 69 | 79 | 2.6 | 7.0 | 0.00 | 0.00 | 0.00 | 73 | 1001.9 |
| 20260505082027 | 69 | 77 | 2.6 | 5.2 | 0.00 | 0.00 | 0.00 | 73 | 1001.9 |
| 20260505081539 | 69 | 94 | 0.9 | 6.1 | 0.00 | 0.00 | 0.00 | 73 | 1002.0 |
| 20260505081027 | 69 | 150 | 1.7 | 6.1 | 0.00 | 0.00 | 0.00 | 73 | 1002.0 |
| 20260505080529 | 69 | 70 | 3.5 | 7.8 | 0.00 | 0.00 | 0.00 | 73 | 1001.8 |
| 20260505080058 | 69 | 98 | 3.5 | 10.4 | 0.00 | 0.00 | 0.00 | 73 | 1002.1 |
| 20260505075528 | 69 | 113 | 3.5 | 10.4 | 0.00 | 0.00 | 0.00 | 73 | 1002.1 |
| 20260505075028 | 69 | 89 | 3.5 | 7.8 | 0.00 | 0.00 | 0.00 | 72 | 1002.1 |
| 20260505074544 | 69 | 0 | 1.7 | 8.7 | 0.00 | 0.00 | 0.00 | 73 | 1002.2 |
| 20260505074028 | 69 | 70 | 2.6 | 8.7 | 0.00 | 0.00 | 0.00 | 72 | 1002.3 |
| 20260505073529 | 69 | 86 | 2.6 | 8.7 | 0.00 | 0.00 | 0.00 | 72 | 1002.4 |
| 20260505073047 | 70 | 77 | 0.9 | 7.0 | 0.00 | 0.00 | 0.00 | 72 | 1002.5 |
| 20260505072531 | 70 | 64 | 3.5 | 7.0 | 0.00 | 0.00 | 0.00 | 72 | 1002.5 |
| 20260505072028 | 70 | 72 | 3.5 | 6.1 | 0.00 | 0.00 | 0.00 | 72 | 1002.6 |
| 20260505071551 | 70 | 84 | 2.6 | 6.1 | 0.00 | 0.00 | 0.00 | 71 | 1002.7 |
| 20260505071028 | 70 | 76 | 1.7 | 4.3 | 0.00 | 0.00 | 0.00 | 72 | 1002.7 |
| 20260505070530 | 70 | 77 | 0.9 | 3.5 | 0.00 | 0.00 | 0.00 | 72 | 1002.7 |
| 20260505070042 | 70 | 86 | 0.9 | 3.5 | 0.00 | 0.00 | 0.00 | 71 | 1002.7 |
| 20260505065527 | 70 | 86 | 0.9 | 5.2 | 0.00 | 0.00 | 0.00 | 72 | 1002.6 |
| 20260505065027 | 70 | 87 | 1.7 | 5.2 | 0.00 | 0.00 | 0.00 | 72 | 1002.8 |
| 20260505064545 | 70 | 51 | 1.7 | 3.5 | 0.00 | 0.00 | 0.00 | 72 | 1003.0 |
| 20260505064028 | 70 | 82 | 0.9 | 3.5 | 0.00 | 0.00 | 0.00 | 72 | 1003.2 |
| 20260505063528 | 70 | 64 | 1.7 | 3.5 | 0.00 | 0.00 | 0.00 | 72 | 1003.1 |
| 20260505063048 | 70 | 94 | 0.9 | 2.6 | 0.00 | 0.00 | 0.00 | 72 | 1003.1 |
| 20260505062528 | 70 | 23 | 0.0 | 2.6 | 0.00 | 0.00 | 0.00 | 71 | 1003.2 |
| 20260505062029 | 70 | 65 | 0.9 | 3.5 | 0.00 | 0.00 | 0.00 | 71 | 1002.9 |
| 20260505061604 | 70 | 167 | 0.0 | 3.5 | 0.00 | 0.00 | 0.00 | 71 | 1002.6 |
| 20260505061027 | 70 | 174 | 0.9 | 4.3 | 0.00 | 0.00 | 0.00 | 71 | 1002.3 |
| 20260505060531 | 70 | 0 | 0.9 | 4.3 | 0.00 | 0.00 | 0.00 | 71 | 1002.2 |
| 20260505060044 | 70 | 58 | 0.9 | 4.3 | 0.00 | 0.00 | 0.00 | 70 | 1002.1 |
| 20260505055526 | 70 | 160 | 0.9 | 5.2 | 0.00 | 0.00 | 0.00 | 70 | 1002.1 |
| 20260505055027 | 70 | 297 | 0.9 | 6.1 | 0.00 | 0.00 | 0.00 | 70 | 1002.1 |
| 20260505054544 | 70 | 174 | 0.9 | 6.1 | 0.00 | 0.00 | 0.00 | 70 | 1002.2 |
| 20260505054027 | 70 | 170 | 0.9 | 5.2 | 0.00 | 0.00 | 0.00 | 70 | 1002.2 |
| 20260505053527 | 70 | 167 | 2.6 | 5.2 | 0.00 | 0.00 | 0.00 | 70 | 1002.2 |
| 20260505053046 | 70 | 127 | 1.7 | 5.2 | 0.00 | 0.00 | 0.00 | 70 | 1002.5 |
| 20260505052531 | 70 | 172 | 0.9 | 5.2 | 0.00 | 0.00 | 0.00 | 69 | 1002.5 |
| 20260505052027 | 71 | 0 | 0.0 | 7.0 | 0.00 | 0.00 | 0.00 | 69 | 1002.7 |
| 20260505051605 | 71 | 103 | 0.9 | 7.0 | 0.00 | 0.00 | 0.00 | 69 | 1002.5 |
| 20260505051026 | 71 | 37 | 1.7 | 7.0 | 0.00 | 0.00 | 0.00 | 69 | 1002.5 |
| 20260505050527 | 70 | 0 | 0.9 | 5.2 | 0.00 | 0.00 | 0.00 | 69 | 1002.5 |
| 20260505041548 | 71 | 165 | 0.9 | 6.1 | 0.00 | 0.00 | 0.00 | 66 | 1002.3 |
| 20260505041030 | 71 | 136 | 1.7 | 7.0 | 0.00 | 0.00 | 0.00 | 66 | 1002.5 |
| 20260505040528 | 71 | 227 | 1.7 | 7.0 | 0.00 | 0.00 | 0.00 | 66 | 1002.6 |
| 20260505040046 | 71 | 105 | 2.6 | 10.4 | 0.00 | 0.00 | 0.00 | 66 | 1002.7 |
| 20260505035529 | 71 | 106 | 1.7 | 10.4 | 0.00 | 0.00 | 0.00 | 66 | 1002.9 |
| 20260505035027 | 71 | 160 | 1.7 | 7.0 | 0.00 | 0.00 | 0.00 | 66 | 1002.8 |
| 20260505034538 | 70 | 131 | 1.7 | 7.0 | 0.00 | 0.00 | 0.00 | 66 | 1002.6 |
| 20260505034033 | 70 | 129 | 2.6 | 8.7 | 0.00 | 0.00 | 0.00 | 66 | 1002.8 |
| 20260505033533 | 71 | 188 | 2.6 | 8.7 | 0.00 | 0.00 | 0.00 | 66 | 1003.1 |
| 20260505033042 | 71 | 160 | 2.6 | 8.7 | 0.00 | 0.00 | 0.00 | 65 | 1003.0 |
| 20260505032529 | 71 | 145 | 2.6 | 7.0 | 0.00 | 0.00 | 0.00 | 63 | 1003.2 |
| 20260505032027 | 71 | 193 | 1.7 | 7.0 | 0.00 | 0.00 | 0.00 | 63 | 1003.3 |
| 20260505031540 | 71 | 58 | 2.6 | 7.0 | 0.00 | 0.00 | 0.00 | 62 | 1003.3 |
| 20260505031027 | 71 | 102 | 2.6 | 7.0 | 0.00 | 0.00 | 0.00 | 62 | 1003.4 |
| 20260505030530 | 71 | 158 | 1.7 | 6.1 | 0.00 | 0.00 | 0.00 | 62 | 1003.4 |
| 20260505030038 | 71 | 120 | 1.7 | 7.8 | 0.00 | 0.00 | 0.00 | 62 | 1003.4 |